Home > Time Zones > World Clock > Weather > Italy > Monza > Past weeks

Flag for Italy Weather past 2 weeks in Monza, Italy

Now
84 °F

Sunny.


Feels Like: 83 °F
Forecast: 73 / 92 °F
Wind: 3 mph from North

Location: Milan / Linate

Current Time: Jul 2, 2015 at 12:05:14 PM

Latest Report: Jul 2, 2015 at 11:20 AM


Visibility: 10 mi

Pressure: 30.18 "Hg

Humidity: 40%

Dew point: 57 °F

Location of MonzaLocation

Historic Weather in Monza — Graph

°F

Monza temperature yesterday

Maximum temperature yesterday: 90 °F (at 4:20 PM)
Minimum temperature yesterday: 70 °F (at 6:20 AM)
Average temperature yesterday: 81 °F

Past Weeks' High & Low Weather Summary

 TemperatureHumidityPressure
High90 °F (Jul 1, 4:20 PM)94% (Jun 18, 6:20 AM)30.21 "Hg (Jun 18, 6:20 AM)
Low59 °F (Jun 24, 4:50 AM)25% (Jun 23, 10:20 PM)29.71 "Hg (Jun 23, 4:50 AM)
Average74 °F57%30.01 "Hg
* Reported Jun 17 10:20 AM — Jul 2 10:50 AM, Monza, Weather by CustomWeather, © 2015

Note: Actual official high and low records may vary slightly from our data, if they occured in-between our weather recording intervals... More about our weather records

Advertising

Monza weather history for previous 24 hours

 ConditionsComfort  
Time TempWeatherWind HumidityBarometerVisibility
10:50 AM
Thu, Jul 2
82 °FSunny.3 mph42%30.18 "Hg10 mi
10:20 AM82 °FPassing clouds.5 mph42%30.18 "HgN/A
9:50 AM81 °FPassing clouds.6 mph42%30.18 "HgN/A
9:20 AM81 °FPassing clouds.6 mph42%30.18 "HgN/A
8:50 AM79 °FPassing clouds.6 mph48%30.18 "HgN/A
8:20 AM77 °FPassing clouds.3 mph61%30.18 "HgN/A
7:50 AM77 °FSunny.5 mph57%30.18 "Hg10 mi
7:20 AM77 °FSunny.1 mph57%30.18 "Hg10 mi
6:50 AM75 °FSunny.1 mph61%30.18 "Hg10 mi
6:20 AM72 °FClear.1 mph73%30.18 "Hg10 mi
5:50 AM73 °FClear.2 mph61%30.15 "Hg10 mi
5:20 AM73 °FClear.2 mph61%30.15 "Hg10 mi
4:50 AM73 °FClear.3 mph61%30.15 "Hg10 mi
4:20 AM73 °FPassing clouds.3 mph61%30.15 "HgN/A
3:50 AM73 °FPassing clouds.3 mph65%30.15 "HgN/A
3:20 AM75 °FPassing clouds.3 mph61%30.15 "HgN/A
2:50 AM75 °FPassing clouds.6 mph61%30.15 "HgN/A
2:20 AM75 °FPassing clouds.5 mph61%30.15 "HgN/A
1:50 AM77 °FClear.5 mph57%30.15 "Hg10 mi
1:20 AM77 °FClear.6 mph57%30.15 "Hg10 mi
12:50 AM77 °FClear.5 mph61%30.15 "Hg10 mi
11:50 PM
Wed, Jul 1
77 °FClear.No wind65%30.15 "Hg10 mi
10:50 PM77 °FClear.2 mph61%30.12 "Hg10 mi
10:20 PM79 °FClear.2 mph58%30.12 "Hg10 mi
9:50 PM81 °FSunny.2 mph54%30.12 "Hg10 mi
9:20 PM84 °FPassing clouds.3 mph43%30.12 "HgN/A
8:50 PM84 °FSunny.6 mph43%30.09 "Hg10 mi
8:20 PM86 °FSunny.7 mph40%30.09 "Hg10 mi
7:50 PM86 °FPassing clouds.8 mph40%30.09 "HgN/A
7:20 PM88 °FSunny.8 mph40%30.09 "Hg10 mi
6:50 PM88 °FPassing clouds.7 mph40%30.09 "HgN/A
6:20 PM90 °FPassing clouds.7 mph38%30.09 "HgN/A
5:50 PM90 °FPassing clouds.6 mph38%30.09 "HgN/A
5:20 PM90 °FPassing clouds.6 mph38%30.09 "HgN/A
4:50 PM90 °FPassing clouds.6 mph38%30.09 "HgN/A
4:20 PM90 °FSunny.5 mph38%30.09 "Hg10 mi
3:50 PM88 °FSunny.5 mph38%30.09 "Hg10 mi
3:20 PM88 °FSunny.5 mph43%30.09 "Hg10 mi
2:50 PM88 °FSunny.5 mph40%30.12 "Hg10 mi
2:20 PM88 °FPassing clouds.7 mph40%30.12 "HgN/A
1:50 PM88 °FPassing clouds.7 mph40%30.12 "HgN/A
1:20 PM88 °FSunny.3 mph40%30.12 "Hg10 mi
12:50 PM86 °FSunny.5 mph40%30.12 "Hg10 mi
12:20 PM86 °FPassing clouds.5 mph40%30.12 "HgN/A
Weather by CustomWeather, © 2015

See weather overviewHow to use our weather pages